Current Version              Previous Version:    01  02  03  04  05  06  07  08  09  10  11  12  13  14  15  16  17  18  19  20  21  22  23  24  25  26  27  28  29  30  
   31  32  33  34  35  36  37  38  39  40  41  42  43  44  45  46  47  48  49  50  51  52  53  54  55  56  57  58  59  60  

[Printable]
551
ASUS44 KEWX 242010
RWRTX
SOUTH TEXAS REGIONAL WEATHER ROUNDUP
NATIONAL WEATHER SERVICE AUSTIN/SAN ANTONIO TX
300 PM CDT FRI OCT 24 2014

NOTE: "FAIR" INDICATED FEW OR NO CLOUDS BELOW 12,000 FEET WITH NO
SIGNIFICANT WEATHER AND/OR OBSTRUCTIONS TO VISIBILITY.

* - THESE STATIONS ARE NOT NWS OR FAA STATIONS...AND ARE NOT SUBJECT
    TO NWS AND FAA QUALITY CONTROL.

TXZ171-172-183>190-242100-
TEXAS HILL COUNTRY AND EDWARDS PLATEAU

CITY           SKY/WX    TMP DP  RH WIND       PRES   REMARKS
JUNCTION       SUNNY     84  55  36 S12       30.12F
*LLANO         NOT AVBL
BURNET         MOSUNNY   81  57  43 VRB5      30.14F
*HORSESHOE BAY MOSUNNY   85  56  37 SW3       30.11F
*KERRVILLE     MOSUNNY   79  59  49 S6        30.14F
*FREDERICKSBRG MOSUNNY   80  57  45 S7        30.14F
*ROCKSPRINGS   MOSUNNY   81  57  44 S9        30.18F
*BOERNE STAGE  MOSUNNY   86  54  32 NW3       30.14F
*CASTROVILLE   MOSUNNY   87  54  32 CALM      30.12F
HONDO          SUNNY     82  58  43 SE5       30.12F
*UVALDE        SUNNY     86  61  43 SW7       30.11F
DEL RIO        SUNNY     83  62  49 SE8       30.10F
LAUGHLIN AFB   SUNNY     82  64  54 S8        30.11F
CARRIZO SPRGS  SUNNY     86  59  39 S3        30.09F
$$

TXZ173-191>194-202-209-217>225-228-242100-
CENTRAL AND SOUTH CENTRAL TEXAS

CITY           SKY/WX    TMP DP  RH WIND       PRES   REMARKS
GEORGETOWN     SUNNY     82  61  47 S5        30.10F
AUSTIN/BERGSTM MOSUNNY   83  61  47 CALM      30.10F
AUSTIN/MABRY   SUNNY     84  61  45 SE3       30.11F
*AUSTIN/EXEC   SUNNY     82  59  44 W6        30.11F
*LAGO VISTA    PTSUNNY   82  58  43 SW3       30.13F
SAN MARCOS     MOSUNNY   82  57  42 SW6       30.10F
NEW BRAUNFELS  SUNNY     86  57  37 CALM      30.09F
RANDOLPH AFB   SUNNY     85  57  38 S3        30.11F
PT SAN ANTONIO SUNNY     85  57  38 S3        30.09F
SAN ANTONIO    MOSUNNY   85  58  39 W5        30.11F
STINSON FIELD  SUNNY     87  57  35 NE6       30.09F
*PLEASANTON    SUNNY     83  57  41 CALM      30.10F
*LA GRANGE     SUNNY     82  60  46 CALM      30.09F
*GIDDINGS      SUNNY     82  56  41 NE3       30.14F
*GONZALES      SUNNY     84  60  43 CALM      30.10F
$$

TXZ163>164-176>182-195>201-210>213-226-227-235-242100-
SOUTHEAST TEXAS

CITY           SKY/WX    TMP DP  RH WIND       PRES   REMARKS
COLLEGE STN    SUNNY     80  55  42 CALM      30.11F
*BRYAN         SUNNY     79  57  46 N5        30.13F HAZE
*CALDWELL      SUNNY     82  54  36 CALM      30.14F
*CROCKETT      SUNNY     81  59  47 W5        30.14F
*BRENHAM       SUNNY     83  55  39 CALM      30.12F
HUNTSVILLE     SUNNY     80  54  40 N6        30.11F
CONROE         SUNNY     80  54  40 N7        30.11F
HOUSTON BUSH   SUNNY     80  54  40 NE6       30.10F
HOUSTON HOBBY  SUNNY     79  52  38 N8        30.09F
*HOUSTON SW AP SUNNY     73  50  43 NW3       30.10F
PEARLAND       SUNNY     80  50  34 VRB3      30.11F
HOUSTON HOOKS  SUNNY     80  53  39 CALM      30.10F
ELLINGTON FLD  SUNNY     77  50  38 N5        30.12F
SUGAR LAND     SUNNY     82  52  35 NE5       30.09F
*HOUSTON EXEC  SUNNY     81 N/A N/A N5        30.11F
*CLEVELAND MUN SUNNY     78  58  50 NE3       30.11F
*WHARTON       SUNNY     82  51  33 N6        30.10F
*COLUMBUS      FAIR      81  56  42 N5        30.09F
$$

TXZ214>216-236>238-242100-
THE UPPER TEXAS COAST

CITY           SKY/WX    TMP DP  RH WIND       PRES   REMARKS
*ORANGE        SUNNY     75  45  33 N5        30.11F
PORT ARTHUR    SUNNY     79  47  32 N10       30.08F
GALVESTON      SUNNY     74  52  46 N7        30.10F
ANGLETON       SUNNY     79  50  36 N6        30.09F
*BAY CITY        N/A     81  53  37 NE6       30.09F
PALACIOS       SUNNY     83  55  38 N7        30.09F
$$

TXZ229>234-239>247-242100-
TEXAS COASTAL BEND AND RIO GRANDE PLAINS

CITY           SKY/WX    TMP DP  RH WIND       PRES   REMARKS
VICTORIA       SUNNY     87  56  34 N10       30.09F
*BEEVILLE      SUNNY     87  55  34 E5        30.08F
ROCKPORT       SUNNY     82  60  47 E10       30.08F
*PORT ARANSAS  SUNNY     79  60  53 E9        30.09F
*PORT LAVACA   SUNNY     82  58  44 NE7       30.09F
*INGLESIDE     SUNNY     84  58  40 E6        30.09F
CORPUS CHRISTI SUNNY     84  59  42 E8        30.09F
CORPUS NAS     MOSUNNY   80  63  55 E6        30.09F
*ROBSTOWN      HVY RAIN  84  60  44 E5        30.09F
ALICE          SUNNY     86  59  39 VRB6      30.08F
KINGSVILLE NAS MOSUNNY   87  61  41 NE10      30.08F
COTULLA        MOSUNNY   88  59  37 SW8       30.09F
*FAITH RANCH   MOSUNNY   86  59  39 S6        30.11F
LAREDO         SUNNY     87  61  41 CALM      30.11F
$$

TXZ248>255-242100-
DEEP SOUTH TEXAS

CITY           SKY/WX    TMP DP  RH WIND       PRES   REMARKS
BROWNSVILLE    SUNNY     84  65  52 NE9       30.08F
PORT ISABEL    MOSUNNY   82  63  52 NE8       30.08F
*SOUTH PADRE   SUNNY    N/A N/A N/A NE9       30.08F
HARLINGEN      SUNNY     83  64  52 E9G17     30.07F
*HEBBRONVILLE  SUNNY     86  56  36 SE5       30.10F
MCALLEN        SUNNY     86  62  44 VRB6      30.08F
*WESLACO       MOSUNNY   84  61  45 NE9       30.07F
FALFURRIAS     SUNNY     84  62  46 E5        30.08F
EDINBURG       SUNNY     86  62  44 NE7       30.08F
*ZAPATA        SUNNY     89  55  30 CALM      30.07F
$$

TXZ213>215-236>238-242>244-246-247-251-254-255-242100-
CMAN STATIONS

STATION/POSITION TIME  TEMP    WIND        PRES    WAVE
                       AIR SEA DIR/SP/G            HT/PER
                 (UTC) (F)     (DEG/KT/KT) (MB)    (FT/S)
SABINE PASS      2000   73 71   10/  8/ 13 1019.0
SEA RIM ST PARK  2000   74      40/  6/  8 1019.2
NORTH JETTY/GLS  2000   72 74   30/  5/  7   N/A
EAGLE POINT      2000   72 74   50/  3/  5 1019.4
MORGANS POINT    2000   74     160/  2/  6 1019.1
MISSION/ARANSAS  1900          150/  7     1021.0
PORT O`CONNOR    2000           40/  2/  3   N/A
PORT ARANSAS     2000   76 79   60/  7/  8 1020.2
MALAQUITE BEACH  2000   76 79   50/  8/  9 1018.6
BAFFIN BAY       2000   77 83   70/ 10/ 12 1018.9
PORT ISABEL      2000   78 78  360/ 10/ 12 1018.6
$$

GMZ080-GMZ150>470-242100-
OFFSHORE BUOY REPORTS

STATION/POSITION TIME  TEMP    WIND        PRES    WAVE
                       AIR SEA DIR/SP/G            HT/PER
                 (UTC) (F)     (DEG/KT/KT) (MB)    (FT/S)
20 E GALVESTON   2000   69 77   50/  6/  8 1018.9    2/ 7
90 E PT ARANSAS  2000   74 81   20/ 10/ 14 1019.3    3/ 8
35 NE PT MANSFLD 2000   76 80   30/ 10/ 12 1018.4    4/ 8
200 E PT ISABEL  2000   76 81   20/ 12/ 14 1017.2    4/ 7
$$